Tracking 19170 objects as of 22-May-2018
HD Live streaming from Space Station
objects crossing your sky now

CZ-2C R/B

Track CZ-2C R/B now!
10-day predictions


NORAD ID: 43084
Int'l Code: 2017-085D
Perigee: 490.3 km
Apogee: 632.5 km
Inclination: 34.7 °
Period: 95.7 minutes
Semi major axis: 6932 km
RCS: Unknown
Launch date: December 25, 2017
Source: People's Republic of China (PRC)
Launch site: Xichang Space Center, China (XSC)

Note: This is a ROCKET BODY
aabbcc
Your satellite tracking list
Your tracking list is empty




NASA's NSSDC Master Catalog

Two Line Element Set (TLE):
1 43084U 17085D   18142.22857213  .00000245  00000-0  16739-4 0  9997
2 43084  34.6684 181.4283 0102556 210.3646 149.1088 15.04102115 22218
Source of the keplerian elements: AFSPC